User: anonymous   Login
Location: Unspecified
(0.0000°N, 0.0000°E)
Time: 20:13:48
(UTC+00:00)
Language:

PLEIADES 1B - Orbit

View from above orbital plane
View from above orbital plane
View from above satellite
View from above satellite

Ground track
Ground track

The orbit data is extracted from the following two-line orbital elements,

1 39019U 12068A   15064.42778336  .00000415  00000-0  99050-4 0  9992
2 39019 098.1729 140.5651 0001338 084.6559 275.4795 14.58549328120038
Epoch (UTC): 05 March 2015 10:16:00
Eccentricity: 0.0001338
inclination: 98.1729°
perigee height: 697 km
apogee height: 699 km
right ascension of ascending node: 140.5651°
argument of perigee: 84.6559°
revolutions per day: 14.58549328
mean anomaly at epoch: 275.4795°
orbit number at epoch: 12003

The dashed part of the orbit path shows where the satellite is in the earth's shadow,  

DLR